Location: Costa Valle Imagna
(45.8000°N, 9.5000°E)
Time: 05:47:11
(UTC+00:00)

Cosmos 2100 Rocket - Pass Details

Date: 17 February 2020
Orbit: 955 x 1002 km, 82.9° (Epoch: 09 April)

Event Time Altitude Azimuth Distance (km) Brightness Sun altitude
Rises 04:53:05 0° 350° (N) 3,690 6.9 -16.2°
Reaches altitude 10° 04:55:37 10° 350° (N) 2,731 6.2 -15.7°
Maximum altitude 05:01:52 80° 264° (W) 985 3.9 -14.6°
Drops below altitude 10° 05:08:01 10° 178° (S) 2,685 6.4 -13.6°
Sets 05:10:29 0° 178° (S) 3,623 7.1 -13.1°
